This is the latest recevied weather packets stored in our database for station/object DG4DAA-13. If no packets are shown the sender has not sent any weather packets the latest 10 day(s).
| Time | Temp. | Humidity | Pressure | Rain* | Wind** | Luminosity | Snow |
|---|---|---|---|---|---|---|---|
| 1778152095 | 10.56° C | 81% | 1018 hPa | 0 mm | - | - | - |
| 1778150295 | 10° C | 82% | 1018 hPa | 0 mm | - | - | - |
| 1778148495 | 9.44° C | 85% | 1017.8 hPa | 0 mm | - | - | - |
| 1778146695 | 9.44° C | 84% | 1017.6 hPa | 0 mm | - | - | - |
| 1778144895 | 8.89° C | 88% | 1017.1 hPa | 0 mm | - | - | - |
| 1778143095 | 8.33° C | 93% | 1017.1 hPa | 0 mm | - | - | - |
| 1778141296 | 7.78° C | 94% | 1016.9 hPa | 0 mm | - | - | - |
| 1778139495 | 7.22° C | 94% | 1016.5 hPa | 0 mm | - | - | - |
| 1778137695 | 7.78° C | 94% | 1016.3 hPa | 0 mm | - | - | - |
| 1778135895 | 7.78° C | 94% | 1016 hPa | 0 mm | - | - | - |
| 1778134095 | 7.78° C | 94% | 1015.7 hPa | 0 mm | - | - | - |
| 1778132295 | 7.22° C | 94% | 1015.4 hPa | 0 mm | - | - | - |
| 1778130495 | 7.22° C | 94% | 1015.1 hPa | 0 mm | - | - | - |
| 1778128696 | 7.22° C | 94% | 1014.8 hPa | 0 mm | - | - | - |
| 1778126905 | 7.22° C | 94% | 1014.6 hPa | 0 mm | - | - | - |
| 1778126896 | 7.22° C | 94% | 1014.6 hPa | 0 mm | - | - | - |
| 1778125095 | 7.22° C | 94% | 1014.4 hPa | 0 mm | - | - | - |
| 1778121496 | 7.78° C | 94% | 1014 hPa | 0 mm | - | - | - |
| 1778119750 | 7.78° C | 94% | 1013.9 hPa | 0.25 mm | - | - | - |
| 1778119696 | 7.78° C | 94% | 1013.9 hPa | 0.25 mm | - | - | - |
| 1778117896 | 7.78° C | 94% | 1013.7 hPa | 0.51 mm | - | - | - |
| 1778116096 | 7.78° C | 94% | 1013.5 hPa | 0.51 mm | - | - | - |
| 1778114296 | 7.78° C | 94% | 1013.4 hPa | 0.51 mm | - | - | - |
| 1778112496 | 7.78° C | 94% | 1013.4 hPa | 0.51 mm | - | - | - |
| 1778110696 | 7.78° C | 94% | 1013.2 hPa | 0.25 mm | - | - | - |
* Rain latest hour (hover to see other rain measurements)
** Current wind speed in m/s (hover to see current wind gust speed)